GAOFEN 12 (02)

Satellite information

Favourite Embed

Satellite Type and Status

PAYLOADIN ORBIT

Key statistics

Satellite GAOFEN 12 (02) at a glance.

Uptime

1676

Days in orbit

Revolutions

≈ 14.8

Per day

Orbit

SSO

Sun Synchronous Orbit

Inclination

98.0

Latest

Satellite identification and parameters

Extended collection of information and parameters for GAOFEN 12 (02).

Object identification

Identified? True

Debris? False

Object name: GAOFEN 12 (02)

International designator: 2021-026A

Object number (NORAD): 48079

Object ID (CCSDS): 48079

Country: PEOPLES REPUBLIC OF CHINA (PRC)

Current information (Y/N): Y

RCS size: LARGE

Orbital parameters

Period: 97.258 minutes

Inclination: 97.984 deg

SMA: 7005.578 km

Apoapsis: 628.126 km

Periapsis: 626.759 km

RAAN: 298.18 deg

Eccentricy: 0.00009759

Argument of periapsis: 218.1951 deg

Mean anomaly: 141.9192 deg

Mean motion: 14.80596907 rev/day

Mean motion (dot): 0.00000767 rev/day2

B* drag term: 0.00010688652 1/REarth

Two-line elements (TLE)

Creation date: Oct. 31, 2025, 3 a.m.

Reference frame: TEME

Reference center: EARTH

Epoch: Oct. 30, 2025, 11:06 p.m. UTC

TLE line 0: 0 GAOFEN 12 (02)

TLE line 1: 1 48079U 21026A 25303.96314619 .00000767 00000-0 10689-3 0 9998

TLE line 2: 2 48079 97.9840 298.1800 0000976 218.1951 141.9192 14.80596907247845

Live tracking on map

Real-time ground track for satellite GAOFEN 12 (02).

In-orbit conjunctions

There are no conjunctions computed for GAOFEN 12 (02), at the moment. Check back to stay up to date, as we update our databases every day.

Go to all conjunctions

Associated space launch

Gaofen is a series of civilian Earth observation satellites developed and launched for the China High-definition Earth Observation System (CHEOS), a state-sponsored programme aimed to develop a near-real time, all-weather, global surveillance network consisting of satellite, near-space (stratosphere) airships, and aerial observation platforms.

GAOFEN 12 (02) was lifted into orbit during the mission ‘Long March 4C | Gaofen-12-02’, on board a Long March 4C space rocket.

The launch took place on March 30, 2021, 10:45 p.m. from Launch Area 4 (SLS-2 / 603).

For more information about the launch, click the button.

Launch to space Long March 4C | Gaofen-12-02
Long March 4C | Gaofen-12-02

Agency: N/A

Status: Launch Successful

Launch date: March 30, 2021, 10:45 p.m. UTC

Rocket: Long March 4C

Launch pad: Launch Area 4 (SLS-2 / 603)

Location: Jiuquan Satellite Launch Center, People's Republic of China

...

Latest news about this satellite

News about space launch
China launches second Gaofen 12 Earth observation satellite

China launched a new remote sensing satellite on March 30 from the Jiuquan Satellite Launch Center. Launch of Gaofen-12 (02) took place at 22:45 UTC from the LC-43/94 launch complex using a Chang Zheng 4C (Y36) rocket.

News about space launch
China launches second Gaofen-12 Earth observation satellite

China launched the Gaofen-12 (02) high resolution satellite Tuesday to boost the country’s Earth observation capabilities.


Newsletter sign-up

Weekly statistics, charts and insights to help you stay on top of the space industry.